Terug naar catalogus

STARLINK-35712

ActiefCommunicatieVLEO
NORAD 66215·PAYLOAD·🇺🇸 United States

Gelanceerd Oct 28, 2025 vanaf Vandenberg Space Force Base

Loading…

Volgende Passages (komende 24 uur)

TLE

VersSource: CelesTrak SupGP

Epoch: Sep 15, 2026, 03:50 UTC

1 66215C 25244K   26258.16020833 -.00025039  00000+0 -73990-3 0  2582
2 66215  53.1585  66.9256 0001182  86.5539 120.4827 15.34398383    13

Volg STARLINK-35712 in realtime met AllMySat

Download on the App Store